EN

Hourly Weather Alsagorka

Today, 25 January, Monday

Time Temperature Precipitation Wind Pressure Humidity
00:00 +1°C° 0 mm 4 mps 738 mmHg 98%
01:00 +1°C° 0 mm 4 mps 738 mmHg 98%
02:00 +2°C° 0 mm 3 mps 738 mmHg 98%
03:00 +1°C° 0 mm 3 mps 738 mmHg 98%
04:00 +1°C° 0 mm 3 mps 738 mmHg 98%
05:00 +2°C° 0 mm 2 mps 738 mmHg 98%
06:00 +1°C° 0 mm 3 mps 738 mmHg 98%
07:00 +1°C° 0 mm 3 mps 738 mmHg 98%
08:00 +1°C° 0 mm 3 mps 738 mmHg 98%
09:00 0°C° 0 mm 3 mps 739 mmHg 94%
10:00 +2°C° 0 mm 2 mps 740 mmHg 93%
11:00 +2°C° 0 mm 2 mps 740 mmHg 93%
12:00 +2°C° 0 mm 2 mps 740 mmHg 93%
13:00 +2°C° 0 mm 2 mps 740 mmHg 93%
14:00 +2°C° 0 mm 2 mps 740 mmHg 94%
15:00 +2°C° 0 mm 2 mps 740 mmHg 95%
16:00 +1°C° 0 mm 3 mps 739 mmHg 96%
17:00 0°C° 0 mm 3 mps 739 mmHg 97%
18:00 +1°C° 0 mm 3 mps 739 mmHg 97%
19:00 0°C° 0 mm 4 mps 738 mmHg 96%
20:00 0°C° 0 mm 4 mps 738 mmHg 96%
21:00 +1°C° 0.8 mm 5 mps 737 mmHg 96%
22:00 +1°C° 0.8 mm 6 mps 736 mmHg 95%
23:00 +1°C° 0.8 mm 6 mps 735 mmHg 95%

Tomorrow, 26 January, Tuesday

Time Temperature Precipitation Wind Pressure Humidity
00:00 +2°C° 0.8 mm 7 mps 735 mmHg 95%
01:00 +2°C° 0.8 mm 7 mps 734 mmHg 94%
02:00 +2°C° 0.8 mm 7 mps 733 mmHg 94%
03:00 +2°C° 0.6 mm 7 mps 732 mmHg 94%
04:00 +2°C° 0.6 mm 7 mps 732 mmHg 94%
05:00 0°C° 0.6 mm 7 mps 731 mmHg 94%
06:00 0°C° 0.2 mm 7 mps 731 mmHg 93%
07:00 +1°C° 0.2 mm 6 mps 730 mmHg 92%
08:00 +1°C° 0.2 mm 6 mps 730 mmHg 91%
09:00 +1°C° 0.3 mm 6 mps 730 mmHg 89%
10:00 +1°C° 0.3 mm 6 mps 730 mmHg 87%
11:00 0°C° 0.3 mm 5 mps 730 mmHg 85%
12:00 0°C° 0.1 mm 5 mps 730 mmHg 87%
13:00 -1°C° 0.1 mm 4 mps 730 mmHg 90%
14:00 -1°C° 0.1 mm 4 mps 730 mmHg 92%
15:00 -1°C° 0.5 mm 4 mps 730 mmHg 93%
16:00 -1°C° 0.5 mm 3 mps 730 mmHg 94%
17:00 -1°C° 0.5 mm 3 mps 730 mmHg 95%
18:00 -1°C° 0.2 mm 2 mps 730 mmHg 96%
19:00 -2°C° 0.2 mm 2 mps 730 mmHg 97%
20:00 0°C° 0.2 mm 1 mps 730 mmHg 98%
21:00 0°C° 0.1 mm 1 mps 730 mmHg 98%
22:00 0°C° 0.1 mm 1 mps 730 mmHg 98%
23:00 0°C° 0.1 mm 1 mps 730 mmHg 97%

Day after tomorrow, 27 January, Wednesday

Time Temperature Precipitation Wind Pressure Humidity
00:00 0°C° 0.1 mm 1 mps 731 mmHg 97%
01:00 -2°C° 0.1 mm 2 mps 731 mmHg 97%
02:00 -2°C° 0.1 mm 2 mps 731 mmHg 97%
03:00 -2°C° 0.3 mm 2 mps 732 mmHg 97%
04:00 -2°C° 0.3 mm 3 mps 732 mmHg 97%
05:00 -2°C° 0.3 mm 3 mps 732 mmHg 97%
06:00 -3°C° 0.1 mm 4 mps 733 mmHg 96%
07:00 -3°C° 0.1 mm 4 mps 733 mmHg 95%
08:00 -4°C° 0.1 mm 5 mps 734 mmHg 93%
09:00 -4°C° 0.1 mm 5 mps 734 mmHg 93%
10:00 -3°C° 0.1 mm 6 mps 735 mmHg 92%
11:00 -3°C° 0.1 mm 6 mps 736 mmHg 91%
12:00 -3°C° 0.1 mm 6 mps 736 mmHg 91%
13:00 -3°C° 0.1 mm 6 mps 737 mmHg 90%
14:00 -3°C° 0.1 mm 6 mps 737 mmHg 89%
15:00 -3°C° 0.1 mm 6 mps 738 mmHg 90%
16:00 -4°C° 0.1 mm 6 mps 738 mmHg 92%
17:00 -4°C° 0.1 mm 5 mps 739 mmHg 93%
18:00 -4°C° 0.1 mm 5 mps 740 mmHg 93%
19:00 -4°C° 0.1 mm 5 mps 740 mmHg 92%
20:00 -4°C° 0.1 mm 6 mps 741 mmHg 92%
21:00 -4°C° 0 mm 5 mps 741 mmHg 91%
22:00 -4°C° 0 mm 5 mps 741 mmHg 90%
23:00 -4°C° 0 mm 5 mps 742 mmHg 89%

28 January, Thursday

Time Temperature Precipitation Wind Pressure Humidity
00:00 -4°C° 0 mm 5 mps 742 mmHg 88%
01:00 -4°C° 0 mm 5 mps 742 mmHg 87%
02:00 -4°C° 0 mm 5 mps 742 mmHg 86%
03:00 -4°C° 0 mm 5 mps 742 mmHg 86%
04:00 -3°C° 0 mm 4 mps 742 mmHg 87%
05:00 -3°C° 0 mm 4 mps 742 mmHg 87%
06:00 -4°C° 0 mm 4 mps 743 mmHg 88%
07:00 -4°C° 0 mm 4 mps 743 mmHg 89%
08:00 -4°C° 0 mm 4 mps 743 mmHg 89%
09:00 -3°C° 0 mm 4 mps 743 mmHg 87%
10:00 -3°C° 0 mm 4 mps 743 mmHg 85%
11:00 -3°C° 0 mm 4 mps 743 mmHg 82%
12:00 -3°C° 0 mm 4 mps 743 mmHg 83%
13:00 -3°C° 0 mm 4 mps 743 mmHg 83%
14:00 -3°C° 0 mm 4 mps 743 mmHg 84%
15:00 -3°C° 0 mm 4 mps 743 mmHg 85%
16:00 -2°C° 0 mm 3 mps 743 mmHg 86%
17:00 -4°C° 0 mm 3 mps 743 mmHg 87%
18:00 -4°C° 0 mm 3 mps 743 mmHg 88%
19:00 -4°C° 0 mm 3 mps 743 mmHg 89%
20:00 -4°C° 0 mm 3 mps 743 mmHg 89%

29 January, Friday

Time Temperature Precipitation Wind Pressure Humidity

30 January, Saturday

Time Temperature Precipitation Wind Pressure Humidity
Show more